Вернуться в каталог

COSMOS 2509

АктивенНавигацияPO
NORAD 40922·PAYLOAD·🇷🇺 Russia

Запущен Sep 23, 2015 с Plesetsk Cosmodrome

Loading…

Ближайшие Пролёты (ближайшие 24 часа)

TLE

СвежийSource: Space-Track

Эпоха: Sep 14, 2026, 21:09 UTC

1 40922U 15050C   26257.88139909 -.00000006  00000-0 -11397-3 0  9999
2 40922  82.4925  22.3927 0014460 201.8547 158.1918 12.42886413498021

Отслеживайте COSMOS 2509 в реальном времени с AllMySat

Download on the App Store